[[{"header":{"parameterUnit":"m.s-1","parameterCategory":1,"la1":30.2991,"la2":30.254,"lo1":-89.0895,"lo2":-89.0444,"dy":0.0017,"dx":0.0017,"nx":28,"ny":28,"refTime":"2024-07-11T21:00:00:Z","depth":0,"parameterNumber":2,"parameterNumberName":"U-component_of_WINDS"},"data":[0,0,0,0,0,0,0,0,0,0,0,0,0,0,0,0,0,0,0,0,0,0,0,0,0,0,0,0,0,0,0,0,0,0,0,0,0,0,0,0,0,0,0,0,0,0,0,0,0,0,0,0,0,0,0,0,0,0,0.9673,0.9675,0,0.9791,0.9792,0.9794,0.9832,0.9832,0.9831,0.9831,0.9953,0.9957,0.9961,0,0,0,0,0,0,0,0,0,0,0,0,0,0.9483,0.9486,0.9673,0.9675,0.9676,0.9791,0.9792,0.9794,0.9832,0.9832,0.9831,0.983,0.9952,0.9956,0.9961,0,0,0,0,0,0,0,0,0,0,0,0,0,0.958,0.9487,0.9673,0.9709,0.9713,0.979,0.9792,0.9794,0.9832,0.9832,0.9831,0.983,0.9951,0.9956,0.9962,1.0012,0,0,0.9979,0.9981,0,0,0,0,0,0,0,0,0.9574,0.9587,0.9702,0.9707,0.9712,0.9796,0.977,0.9867,0.9833,0.9787,0.9831,0.983,0.9902,0.9911,0.9935,1.0017,1.0023,0.9979,0.9983,0.9985,0.9987,0,0,0,0,0,0,0,0.9567,0.9582,0.972,0.9704,0.971,0.972,0.9733,0.9789,0.9847,0.9791,0.9794,0.9808,0.9904,0.993,0.9938,1.0024,0.9979,0.9984,0.9988,0.999,1.0153,1.0154,0,0,0,0,0,0,0.9554,0.9576,0.9716,0.9723,0.964,0.9724,0.9738,0.977,0.9847,0.9858,0.9808,0.9809,0.992,0.9932,0.9943,1.0006,0.9985,0.999,0.9993,1.0152,1.0153,1.0154,0,0,0,0,0,0,0.955,0.9567,0.9711,0.9651,0.967,0.9728,0.9763,0.9773,0.9798,0.986,0.9871,0.9823,0.992,0.9935,0.9994,1.0011,0.9993,0.9998,1.0151,1.0152,1.0154,1.0133,0,0,0,0,0,0,0.9545,0.9565,0.9584,0.9651,0.9673,0.976,0.9764,0.9775,0.9807,0.9809,0.9877,0.9887,0.9921,0.9985,0.9999,1.0018,1.0002,1.015,1.0152,1.0153,1.0132,1.0133,1.0134,0,0,0,0,0,0.9538,0.9574,0.9585,0.9602,0.9698,0.9761,0.9774,0.9811,0.9808,0.9829,0.9868,0.9885,1.0006,0.9991,1.0007,1.0028,1.0149,1.0151,1.0153,1.0132,1.0133,1.0134,0,0,0,0,0,0,0.9509,0.9584,0.9596,0.9655,0.9701,0.9767,0.9794,0.9811,0.986,0.986,0.9905,0.9919,0.9975,1.0008,0.9989,1.008,1.0079,1.0084,1.0057,1.0058,1.0059,1.005,1.0007,0,0,0,0,0,0.9509,0.9554,0.9617,0.9663,0.9685,0.9735,0.9764,0.9789,0.9838,0.9858,0.9902,0.995,0.9999,1.0031,1.0079,1.0137,1.0152,1.0159,1.016,1.0161,1.0165,1.0197,1.0201,1.0161,1.0161,1.0161,0,0,0.9511,0.9557,0.9583,0.9658,0.9697,0.9742,0.9751,0.9799,0.9833,0.9866,0.9924,0.9958,1.0014,1.0073,1.0101,1.0102,1.0179,1.0164,1.0163,1.0168,1.02,1.0204,1.0207,1.0163,1.0163,1.0162,0,0,0.9537,0.9576,0.9618,0.9657,0.9715,0.9748,0.9758,0.9821,0.9844,0.9903,0.9928,0.997,1.0053,1.0092,1.0123,1.0163,1.018,1.0177,1.0183,1.0214,1.0217,1.022,1.0233,1.0238,1.0181,1.0181,1.0181,0,0.9531,0.96,0.9638,0.9684,0.9716,0.9747,0.9791,0.9826,0.9897,0.9919,0.9919,1.0023,1.0064,1.0131,1.0141,1.0165,1.0178,1.017,1.0213,1.0216,1.022,1.0233,1.0238,1.0181,1.0181,1.0181,1.0181,0,0.959,0.9637,0.9665,0.9731,0.9767,0.9811,0.9856,0.9888,0.9909,0.9942,1.0001,1.0051,1.0109,1.0127,1.0149,1.0198,1.0197,1.0204,1.0204,1.0222,1.0236,1.0241,1.018,1.018,1.018,1.018,0,0,0.9602,0.9688,0.9698,0.9728,0.9794,0.9831,0.9877,0.9933,0.9959,1.0007,1.0046,1.0116,1.0123,1.0158,1.0184,1.0211,1.0239,1.0216,1.0218,1.0218,1.0295,1.0288,1.0294,1.025,1.0252,1.0252,1.029,0,0.9635,0.9718,0.9753,0.9819,0.9863,0.9893,0.9933,0.9977,1.0009,1.0051,1.0087,1.0135,1.0141,1.0162,1.019,1.0229,1.0255,1.0227,1.0287,1.0289,1.0272,1.0301,1.0294,1.0327,1.0295,1.0296,1.0297,0,0.9686,0.9733,0.9803,0.9863,0.9883,0.9918,0.9972,1.0012,1.0063,1.0085,1.0123,1.0148,1.0197,1.0192,1.0261,1.0241,1.0268,1.0291,1.0293,1.03,1.0294,1.0308,1.0339,1.0343,1.0306,1.0305,1.0304,0,0.9686,0.9768,0.982,0.9845,0.9916,0.994,0.9971,1.0021,1.0053,1.0101,1.0121,1.0174,1.0203,1.0244,1.0282,1.0276,1.0346,1.0346,1.0365,1.0364,1.0379,1.0378,1.0414,1.0397,1.0397,1.0396,1.0396,0,0.9721,0.9762,0.9821,0.9853,0.9901,0.9941,0.9987,1.002,1.0064,1.0104,1.0133,1.0169,1.0218,1.026,1.029,1.0342,1.0355,1.0374,1.0381,1.0371,1.0368,1.0389,1.0388,1.0398,1.0398,1.0397,1.0397,0,0.9729,0.977,0.9829,0.9891,0.9908,0.994,0.9994,1.0026,1.0059,1.0108,1.0122,1.0174,1.0225,1.0267,1.0335,1.0355,1.0409,1.0418,1.0391,1.0395,1.0412,1.041,1.0463,1.0472,1.0449,1.0449,1.0449,0,0.9748,0.978,0.9846,0.9874,0.9904,0.9949,0.9981,1.0022,1.0054,1.0115,1.014,1.0193,1.0237,1.0318,1.0362,1.0414,1.0424,1.0439,1.0432,1.042,1.0424,1.0421,1.0424,1.0439,1.0439,1.0439,1.0439,0,0.9777,0.9795,0.984,0.9892,0.9929,0.9972,1.0015,1.0037,1.0086,1.012,1.0173,1.0207,1.0275,1.0328,1.0384,1.0416,1.0436,1.0441,1.0448,1.0438,1.0421,1.043,1.0392,1.044,1.044,1.044,1.044,1.044,0.9791,0.9821,0.9872,0.992,0.9957,0.9997,1.003,1.0067,1.0111,1.017,1.0191,1.0245,1.0295,1.0372,1.0404,1.0447,1.0449,1.0459,1.0462,1.0464,1.0462,1.0414,1.0457,1.0457,1.0457,1.0457,1.0457,0,0.9821,0.9855,0.9899,0.9959,0.9997,1.0012,1.0061,1.0092,1.0138,1.0183,1.0226,1.0286,1.0336,1.0384,1.0437,1.0461,1.0472,1.0474,1.0473,1.0479,1.0458,1.0446,1.0465,1.0465,1.0465,1.0465,1.0465,1.0465,0.9841,0.9892,0.9917,0.9987,1.0021,1.0073,1.0099,1.0136,1.0172,1.0237,1.0279,1.0309,1.0355,1.0411,1.0458,1.0471,1.0489,1.0489,1.0504,1.0482,1.0481,1.048,1.0469,1.0492,1.0493,1.0522,1.0523,1.0523]},{"header":{"parameterUnit":"m.s-1","parameterCategory":1,"la1":30.2991,"la2":30.254,"lo1":-89.0895,"lo2":-89.0444,"dy":0.0017,"dx":0.0017,"nx":28,"ny":28,"refTime":"2024-07-11T21:00:00:Z","depth":0,"parameterNumber":3,"parameterNumberName":"V-component_of_WINDS"},"data":[0,0,0,0,0,0,0,0,0,0,0,0,0,0,0,0,0,0,0,0,0,0,0,0,0,0,0,0,0,0,0,0,0,0,0,0,0,0,0,0,0,0,0,0,0,0,0,0,0,0,0,0,0,0,0,0,0,0,4.3485,4.3485,0,4.3444,4.3444,4.3443,4.3436,4.3436,4.3437,4.3437,4.3388,4.3386,4.3384,0,0,0,0,0,0,0,0,0,0,0,0,0,4.3551,4.3549,4.3485,4.3485,4.3484,4.3444,4.3444,4.3443,4.3436,4.3436,4.3437,4.3437,4.3388,4.3386,4.3384,0,0,0,0,0,0,0,0,0,0,0,0,0,4.3517,4.3549,4.3485,4.3476,4.3475,4.3444,4.3444,4.3443,4.3436,4.3436,4.3437,4.3437,4.3389,4.3386,4.3384,4.3358,0,0,4.3376,4.3375,0,0,0,0,0,0,0,0,4.3519,4.3515,4.3478,4.3477,4.3475,4.3446,4.3449,4.3414,4.3436,4.345,4.3437,4.3438,4.3406,4.3402,4.3393,4.3356,4.3354,4.3376,4.3375,4.3374,4.3373,0,0,0,0,0,0,0,4.3521,4.3516,4.3469,4.3477,4.3476,4.3472,4.3467,4.3442,4.3425,4.3449,4.3448,4.3444,4.3405,4.3396,4.3392,4.3353,4.3376,4.3374,4.3373,4.3372,4.3291,4.329,0,0,0,0,0,0,4.3526,4.3518,4.347,4.3468,4.3499,4.347,4.3465,4.3455,4.3426,4.3422,4.3444,4.3444,4.3399,4.3395,4.339,4.3357,4.3374,4.3371,4.337,4.3291,4.329,4.329,0,0,0,0,0,0,4.3528,4.3522,4.3472,4.3493,4.3486,4.3468,4.3456,4.3453,4.3444,4.3422,4.3418,4.3437,4.34,4.3394,4.3366,4.3355,4.337,4.3368,4.3292,4.3291,4.329,4.3291,0,0,0,0,0,0,4.353,4.3523,4.3514,4.3493,4.3485,4.3451,4.3456,4.3452,4.344,4.344,4.3415,4.3411,4.34,4.337,4.3364,4.3352,4.3366,4.3293,4.3292,4.329,4.3292,4.3291,4.3289,0,0,0,0,0,4.3532,4.3515,4.3514,4.3508,4.3475,4.345,4.3446,4.3435,4.344,4.343,4.3416,4.3412,4.3358,4.3367,4.336,4.3348,4.3293,4.3292,4.329,4.3293,4.3291,4.3289,0,0,0,0,0,0,4.3533,4.3512,4.351,4.3486,4.3471,4.3449,4.3437,4.3433,4.3414,4.3415,4.34,4.3394,4.3368,4.3355,4.3366,4.332,4.3326,4.3323,4.333,4.3328,4.3326,4.3329,4.3364,0,0,0,0,0,4.3531,4.3515,4.3497,4.3477,4.3469,4.3455,4.3443,4.3437,4.3419,4.3411,4.3395,4.3376,4.3354,4.334,4.3319,4.329,4.3284,4.3278,4.3277,4.3276,4.3273,4.3255,4.3252,4.3285,4.3285,4.3285,0,0,4.3526,4.3512,4.3503,4.3477,4.3464,4.3446,4.3449,4.3429,4.3415,4.3408,4.3381,4.3369,4.3346,4.3318,4.3304,4.3306,4.3262,4.3274,4.3273,4.3271,4.3253,4.325,4.3248,4.3284,4.3284,4.3284,0,0,4.3507,4.3496,4.3478,4.3465,4.3446,4.3436,4.3432,4.3411,4.3403,4.3377,4.3371,4.3352,4.3316,4.33,4.3287,4.3262,4.3257,4.3255,4.3247,4.323,4.3227,4.3225,4.3215,4.3211,4.3252,4.3252,4.3252,0,4.3502,4.3477,4.3469,4.345,4.3438,4.3433,4.3413,4.3401,4.3374,4.3365,4.3369,4.3323,4.3307,4.3274,4.3268,4.3258,4.3251,4.3258,4.3229,4.3226,4.3224,4.3214,4.321,4.3252,4.3252,4.3252,4.3252,0,4.3471,4.3453,4.3441,4.3419,4.3405,4.3386,4.3373,4.336,4.3355,4.3344,4.3316,4.3298,4.3273,4.3264,4.3258,4.323,4.3232,4.3232,4.3237,4.3221,4.3211,4.3207,4.3252,4.3252,4.3252,4.3252,0,0,4.3451,4.3425,4.3421,4.341,4.3389,4.3374,4.3354,4.3332,4.332,4.3302,4.3283,4.3253,4.3253,4.3238,4.323,4.3215,4.3195,4.3217,4.3216,4.3213,4.3162,4.3162,4.3158,4.3192,4.3191,4.3191,4.3164,0,4.3429,4.3396,4.3388,4.3358,4.3341,4.3336,4.3318,4.3301,4.3291,4.3272,4.3259,4.3238,4.324,4.3231,4.3216,4.3201,4.3185,4.3203,4.3172,4.3171,4.3178,4.3153,4.3152,4.3128,4.316,4.3159,4.3159,0,4.3399,4.3383,4.3353,4.3333,4.3325,4.331,4.3288,4.3272,4.3252,4.3245,4.3229,4.3222,4.3198,4.3205,4.3171,4.3184,4.3171,4.3161,4.316,4.3156,4.3164,4.3147,4.312,4.3116,4.3153,4.3153,4.3154,0,4.3387,4.3357,4.3335,4.3326,4.3303,4.3292,4.3281,4.3263,4.325,4.323,4.3221,4.3198,4.3185,4.3166,4.3152,4.3159,4.3119,4.3125,4.3111,4.3111,4.3102,4.3103,4.3071,4.3095,4.3095,4.3095,4.3095,0,4.3363,4.3344,4.3329,4.3316,4.3294,4.3284,4.3261,4.325,4.3234,4.3216,4.3209,4.3191,4.3175,4.3154,4.3143,4.3116,4.311,4.3102,4.3099,4.3102,4.3103,4.3093,4.3094,4.3094,4.3094,4.3094,4.3095,0,4.3345,4.3335,4.331,4.3291,4.3286,4.327,4.3252,4.3237,4.3227,4.3204,4.3198,4.318,4.3156,4.3141,4.3109,4.3101,4.3071,4.3069,4.3079,4.3077,4.3064,4.3065,4.3024,4.3017,4.3046,4.3046,4.3046,0,4.333,4.3316,4.3296,4.3285,4.3275,4.3256,4.3243,4.3232,4.3219,4.3195,4.3183,4.3159,4.3139,4.31,4.3083,4.3058,4.3055,4.3042,4.3051,4.3055,4.3053,4.3054,4.3052,4.304,4.304,4.304,4.304,0,4.3305,4.33,4.3284,4.3265,4.325,4.3234,4.3218,4.3208,4.3194,4.3179,4.3155,4.314,4.3109,4.3085,4.3059,4.3045,4.3039,4.3038,4.3033,4.3036,4.3041,4.3037,4.3074,4.3038,4.3038,4.3039,4.3039,4.3039,4.3287,4.3274,4.3258,4.3239,4.3226,4.3211,4.3196,4.3184,4.3166,4.3141,4.3135,4.311,4.3089,4.3054,4.304,4.3019,4.302,4.3013,4.3011,4.301,4.3009,4.3046,4.3014,4.3014,4.3014,4.3014,4.3014,0,4.326,4.325,4.3233,4.3211,4.3196,4.3195,4.3177,4.3163,4.3142,4.3125,4.3106,4.3078,4.3054,4.3035,4.301,4.2996,4.2993,4.299,4.299,4.2987,4.301,4.3016,4.2993,4.2993,4.2993,4.2993,4.2993,4.2993,4.3245,4.3222,4.3216,4.3186,4.3175,4.3153,4.3142,4.3128,4.3114,4.3084,4.3065,4.3054,4.3035,4.3008,4.2985,4.298,4.2971,4.2968,4.2962,4.2983,4.2986,4.2988,4.2994,4.2966,4.2966,4.2941,4.2941,4.2941]}]]